TimePDT,TemperatureF,Dew PointF,Humidity,Sea Level PressureIn,VisibilityMPH,Wind Direction,Wind SpeedMPH,Gust SpeedMPH,PrecipitationIn,Events,Conditions,WindDirDegrees,DateUTC
12:15 AM,50.0,35.6,58,30.17,10.0,Calm,Calm,-,N/A,,Clear,0,2013-09-11 07:15:00
12:35 AM,48.2,35.6,62,30.17,10.0,Calm,Calm,-,N/A,,Clear,0,2013-09-11 07:35:00
12:55 AM,48.2,37.4,66,30.17,10.0,Calm,Calm,-,N/A,,Clear,0,2013-09-11 07:55:00
1:15 AM,46.4,35.6,66,30.18,10.0,Calm,Calm,-,N/A,,Clear,0,2013-09-11 08:15:00
1:35 AM,48.2,35.6,62,30.18,10.0,ENE,3.5,-,N/A,,Clear,70,2013-09-11 08:35:00
1:55 AM,50.0,35.6,58,30.18,10.0,Calm,Calm,-,N/A,,Clear,0,2013-09-11 08:55:00
2:15 AM,44.6,35.6,71,30.18,10.0,Calm,Calm,-,N/A,,Clear,0,2013-09-11 09:15:00
2:35 AM,46.4,35.6,66,30.18,10.0,Calm,Calm,-,N/A,,Clear,0,2013-09-11 09:35:00
2:55 AM,46.4,35.6,66,30.18,10.0,Calm,Calm,-,N/A,,Clear,0,2013-09-11 09:55:00
3:15 AM,44.6,35.6,71,30.18,10.0,Calm,Calm,-,N/A,,Clear,0,2013-09-11 10:15:00
3:35 AM,44.6,35.6,71,30.19,10.0,Calm,Calm,-,N/A,,Clear,0,2013-09-11 10:35:00
3:55 AM,44.6,35.6,71,30.19,10.0,Calm,Calm,-,N/A,,Clear,0,2013-09-11 10:55:00
4:15 AM,44.6,37.4,76,30.19,10.0,Calm,Calm,-,N/A,,Clear,0,2013-09-11 11:15:00
4:35 AM,41.0,35.6,81,30.19,10.0,Calm,Calm,-,N/A,,Clear,0,2013-09-11 11:35:00
4:55 AM,41.0,35.6,81,30.19,10.0,Calm,Calm,-,N/A,,Clear,0,2013-09-11 11:55:00
5:15 AM,41.0,35.6,81,30.19,10.0,SSW,3.5,-,N/A,,Clear,210,2013-09-11 12:15:00
5:35 AM,41.0,35.6,81,30.19,10.0,Calm,Calm,-,N/A,,Clear,0,2013-09-11 12:35:00
5:55 AM,41.0,35.6,81,30.20,10.0,Calm,Calm,-,N/A,,Clear,0,2013-09-11 12:55:00
6:15 AM,41.0,35.6,81,30.20,10.0,NNE,3.5,-,N/A,,Clear,30,2013-09-11 13:15:00
6:35 AM,39.2,33.8,81,30.21,10.0,Calm,Calm,-,N/A,,Clear,0,2013-09-11 13:35:00
6:55 AM,37.4,32.0,81,30.22,10.0,Calm,Calm,-,N/A,,Mostly Cloudy,0,2013-09-11 13:55:00
7:55 AM,41.0,33.8,76,30.23,10.0,Calm,Calm,-,N/A,,Mostly Cloudy,0,2013-09-11 14:55:00
8:45 AM,50.0,37.4,62,30.23,10.0,Calm,Calm,-,N/A,,Mostly Cloudy,0,2013-09-11 15:45:00
9:55 AM,59.0,37.4,45,30.22,10.0,Calm,Calm,-,N/A,,Mostly Cloudy,0,2013-09-11 16:55:00
10:50 AM,66.2,39.2,37,30.22,10.0,NE,3.5,-,N/A,,Mostly Cloudy,40,2013-09-11 17:50:00
11:50 AM,75.2,32.0,21,30.20,10.0,NNE,5.8,-,N/A,,Mostly Cloudy,20,2013-09-11 18:50:00
12:50 PM,77.0,30.2,18,30.19,10.0,NE,3.5,-,N/A,,Mostly Cloudy,40,2013-09-11 19:50:00
1:55 PM,77.0,35.6,22,30.17,10.0,West,13.8,19.6,N/A,,Mostly Cloudy,280,2013-09-11 20:55:00
2:55 PM,78.8,35.6,21,30.16,10.0,SW,9.2,-,N/A,,Mostly Cloudy,230,2013-09-11 21:55:00
4:55 PM,75.2,39.2,27,30.16,10.0,WSW,12.7,17.3,N/A,,Mostly Cloudy,250,2013-09-11 23:55:00
5:55 PM,75.2,35.6,24,30.17,10.0,WSW,10.4,-,N/A,,Mostly Cloudy,240,2013-09-12 00:55:00
6:15 PM,73.4,35.6,25,30.17,10.0,West,10.4,17.3,N/A,,Mostly Cloudy,260,2013-09-12 01:15:00
6:35 PM,71.6,35.6,27,30.17,10.0,WSW,8.1,-,N/A,,Partly Cloudy,250,2013-09-12 01:35:00
6:55 PM,71.6,35.6,27,30.17,10.0,SW,11.5,-,N/A,,Partly Cloudy,230,2013-09-12 01:55:00
7:15 PM,69.8,33.8,27,30.17,10.0,WSW,8.1,-,N/A,,Mostly Cloudy,240,2013-09-12 02:15:00
7:35 PM,68.0,33.8,28,30.18,10.0,SW,3.5,-,N/A,,Mostly Cloudy,220,2013-09-12 02:35:00
7:55 PM,66.2,33.8,30,30.19,10.0,Calm,Calm,-,N/A,,Partly Cloudy,0,2013-09-12 02:55:00
8:15 PM,66.2,35.6,32,30.19,10.0,Calm,Calm,-,N/A,,Clear,0,2013-09-12 03:15:00
8:35 PM,60.8,33.8,36,30.20,10.0,Calm,Calm,-,N/A,,Clear,0,2013-09-12 03:35:00
8:55 PM,59.0,35.6,42,30.21,10.0,SE,5.8,-,N/A,,Clear,140,2013-09-12 03:55:00
9:15 PM,55.4,33.8,44,30.21,10.0,SSE,6.9,-,N/A,,Clear,160,2013-09-12 04:15:00
9:35 PM,57.2,35.6,44,30.21,10.0,SSE,4.6,-,N/A,,Clear,150,2013-09-12 04:35:00
9:55 PM,57.2,35.6,44,30.21,10.0,SSE,3.5,-,N/A,,Clear,150,2013-09-12 04:55:00
10:15 PM,55.4,33.8,44,30.21,10.0,Calm,Calm,-,N/A,,Clear,0,2013-09-12 05:15:00
10:35 PM,53.6,35.6,51,30.21,10.0,Calm,Calm,-,N/A,,Clear,0,2013-09-12 05:35:00
10:55 PM,53.6,35.6,51,30.21,10.0,Calm,Calm,-,N/A,,Clear,0,2013-09-12 05:55:00
11:15 PM,51.8,35.6,54,30.21,10.0,Calm,Calm,-,N/A,,Partly Cloudy,0,2013-09-12 06:15:00
11:35 PM,50.0,35.6,58,30.21,10.0,SSE,4.6,-,N/A,,Mostly Cloudy,150,2013-09-12 06:35:00
11:55 PM,48.2,32.0,54,30.21,10.0,South,4.6,-,N/A,,Overcast,180,2013-09-12 06:55:00